Home   Weather   Washington DC   Past weeks

Flag for USA Past Weather in Washington DC, USA — Yesterday and Last 2 Weeks

Now
81 °F

Passing clouds.


Feels Like: 87 °F
Forecast: 75 / 90 °F
Wind: 9 mph from South

Location: Reagan National Airport

Current Time: Aug 17, 2017 at 11:22:18 pm

Latest Report: Aug 17, 2017 at 10:52 pm


Visibility: 10 mi

Pressure: 29.93 "Hg

Humidity: 82%

Dew Point: 75 °F

Location of Washington DCLocation

Past Weather in Washington DC — Graph

°F

Washington DC Temperature Yesterday

Maximum temperature yesterday: 91 °F (at 2:52 pm)
Minimum temperature yesterday: 73 °F (at 2:52 am)
Average temperature yesterday: 80 °F

High & Low Weather Summary for the Past Weeks

 TemperatureHumidityPressure
High91 °F (Aug 16, 2:52 pm)100% (Aug 7, 2:44 pm)30.26 "Hg (Aug 7, 2:44 pm)
Low65 °F (Aug 9, 5:52 am)34% (Aug 9, 11:52 am)29.84 "Hg (Aug 5, 2:52 am)
Average77 °F77%30.01 "Hg
* Reported Aug 2 9:52 pm — Aug 17 9:52 pm, Washington DC. Weather by CustomWeather, © 2017

Note: Actual official high and low records may vary slightly from our data, if they occured in-between our weather recording intervals... More about our weather records

Advertising

Washington DC Weather History for the Previous 24 Hours

Scroll right to see more
 ConditionsComfort  
Time TempWeatherWind HumidityBarometerVisibility
9:52 pm
Thu, Aug 17
82 °FPassing clouds.12 mph79%29.94 "Hg10 mi
8:52 pm83 °FPassing clouds.9 mph77%29.94 "Hg10 mi
7:52 pm84 °FScattered clouds.13 mph74%29.93 "Hg10 mi
6:52 pm86 °FScattered clouds.12 mph70%29.94 "Hg10 mi
5:52 pm87 °FPartly sunny.12 mph67%29.94 "Hg10 mi
4:52 pm85 °FScattered clouds.12 mph72%29.92 "Hg10 mi
3:52 pm83 °FPartly sunny.17 mph82%29.94 "Hg10 mi
2:52 pm88 °FScattered clouds.12 mph73%29.95 "Hg10 mi
1:52 pm87 °FPartly sunny.9 mph72%29.97 "Hg10 mi
12:52 pm87 °FPartly sunny.13 mph69%29.99 "Hg10 mi
11:52 am85 °FScattered clouds.9 mph75%30.01 "Hg10 mi
10:52 am84 °FScattered clouds.8 mph74%30.02 "Hg10 mi
9:52 am81 °FScattered clouds.8 mph79%30.03 "Hg10 mi
8:52 am80 °FScattered clouds.6 mph81%30.03 "Hg10 mi
7:52 am78 °FScattered clouds.6 mph93%30.03 "Hg9 mi
6:52 am77 °FScattered clouds.3 mph94%30.01 "Hg8 mi
5:52 am77 °FPassing clouds.7 mph96%30.01 "Hg8 mi
4:52 am77 °FPassing clouds.6 mph94%30.00 "Hg10 mi
3:52 am78 °FPassing clouds.3 mph93%30.00 "Hg10 mi
2:52 am79 °FOvercast.3 mph88%30.01 "Hg10 mi
1:52 am80 °FMostly cloudy.3 mph85%30.02 "Hg10 mi
12:52 am81 °FMostly cloudy.No wind82%30.02 "Hg10 mi
11:52 pm
Wed, Aug 16
81 °FOvercast.3 mph85%30.03 "Hg10 mi
Weather by CustomWeather, © 2017

See weather overviewHow to use our weather pages